When you browse on this site, cookies collect data to enhance your experience and personalize the content and advertising you see.
Visit our Privacy Policy to learn more. By continuing to use the site, you agree to this use of cookies and data.
  • en France
  • Liste des pays
  • À 7 jours
  • Température de l'eau
  • Carte météo
  • Widgets météo
  • user-avatar
    Se connecter

    Météo par heure à Cuiaba

    Ce jour, 22 Novembre, Vendredi

    Heure Température Précipitation Vent Pression Humidité
    00:00 +27°C° 0 mm 1 m/s 737 mmHg 67%
    01:00 +27°C° 0 mm 1 m/s 737 mmHg 70%
    02:00 +26°C° 0 mm 1 m/s 737 mmHg 72%
    03:00 +26°C° 0 mm 1 m/s 737 mmHg 74%
    04:00 +26°C° 0 mm 2 m/s 737 mmHg 76%
    05:00 +26°C° 0 mm 2 m/s 737 mmHg 78%
    06:00 +28°C° 0 mm 2 m/s 737 mmHg 70%
    07:00 +30°C° 0 mm 2 m/s 738 mmHg 62%
    08:00 +34°C° 0 mm 2 m/s 739 mmHg 55%
    09:00 +36°C° 0 mm 2 m/s 739 mmHg 48%
    10:00 +37°C° 0 mm 1 m/s 738 mmHg 41%
    11:00 +41°C° 0 mm 1 m/s 738 mmHg 34%
    12:00 +40°C° 0 mm 1 m/s 738 mmHg 34%
    13:00 +40°C° 0 mm 1 m/s 737 mmHg 35%
    14:00 +40°C° 0 mm 1 m/s 736 mmHg 35%
    15:00 +36°C° 0.2 mm 1 m/s 736 mmHg 44%
    16:00 +35°C° 0.2 mm 2 m/s 736 mmHg 53%
    17:00 +31°C° 0.2 mm 2 m/s 736 mmHg 62%
    18:00 +30°C° 0.3 mm 2 m/s 736 mmHg 66%
    19:00 +29°C° 0.3 mm 1 m/s 737 mmHg 70%
    20:00 +26°C° 0.3 mm 0 m/s 737 mmHg 75%
    21:00 +27°C° 0.1 mm 1 m/s 737 mmHg 77%
    22:00 +26°C° 0.1 mm 1 m/s 738 mmHg 80%
    23:00 +26°C° 0.1 mm 1 m/s 738 mmHg 83%

    Demain, 23 Novembre, Samedi

    Heure Température Précipitation Vent Pression Humidité
    00:00 +26°C° 0 mm 1 m/s 737 mmHg 83%
    01:00 +25°C° 0 mm 1 m/s 737 mmHg 83%
    02:00 +25°C° 0 mm 1 m/s 736 mmHg 84%
    03:00 +25°C° 0 mm 1 m/s 737 mmHg 85%
    04:00 +25°C° 0 mm 1 m/s 737 mmHg 87%
    05:00 +24°C° 0 mm 1 m/s 737 mmHg 88%
    06:00 +27°C° 0 mm 2 m/s 738 mmHg 79%
    07:00 +29°C° 0 mm 2 m/s 739 mmHg 70%
    08:00 +31°C° 0 mm 2 m/s 739 mmHg 61%
    09:00 +34°C° 0 mm 2 m/s 739 mmHg 54%
    10:00 +36°C° 0 mm 2 m/s 739 mmHg 47%
    11:00 +38°C° 0 mm 2 m/s 739 mmHg 40%
    12:00 +38°C° 0 mm 2 m/s 738 mmHg 39%
    13:00 +38°C° 0 mm 2 m/s 738 mmHg 38%
    14:00 +37°C° 0 mm 1 m/s 737 mmHg 38%
    15:00 +37°C° 0 mm 1 m/s 736 mmHg 39%
    16:00 +36°C° 0 mm 1 m/s 736 mmHg 41%
    17:00 +36°C° 0 mm 1 m/s 736 mmHg 43%
    18:00 +33°C° 0.2 mm 1 m/s 736 mmHg 54%
    19:00 +30°C° 0.2 mm 1 m/s 736 mmHg 64%
    20:00 +27°C° 0.2 mm 1 m/s 736 mmHg 75%
    21:00 +27°C° 0 mm 1 m/s 737 mmHg 76%
    22:00 +27°C° 0 mm 1 m/s 737 mmHg 77%
    23:00 +26°C° 0 mm 1 m/s 737 mmHg 78%

    Après-demain, 24 Novembre, Dimanche

    Heure Température Précipitation Vent Pression Humidité
    00:00 +26°C° 0 mm 2 m/s 737 mmHg 80%
    01:00 +26°C° 0 mm 2 m/s 737 mmHg 81%
    02:00 +26°C° 0 mm 2 m/s 737 mmHg 82%
    03:00 +25°C° 0.1 mm 2 m/s 737 mmHg 84%
    04:00 +25°C° 0.1 mm 1 m/s 737 mmHg 86%
    05:00 +25°C° 0.1 mm 1 m/s 737 mmHg 88%
    06:00 +27°C° 0 mm 2 m/s 738 mmHg 79%
    07:00 +29°C° 0 mm 2 m/s 738 mmHg 70%
    08:00 +31°C° 0 mm 3 m/s 739 mmHg 62%
    09:00 +34°C° 0 mm 3 m/s 738 mmHg 55%
    10:00 +36°C° 0 mm 3 m/s 738 mmHg 47%
    11:00 +38°C° 0 mm 3 m/s 738 mmHg 40%
    12:00 +38°C° 0 mm 3 m/s 737 mmHg 41%
    13:00 +38°C° 0 mm 3 m/s 736 mmHg 41%
    14:00 +38°C° 0 mm 2 m/s 735 mmHg 41%
    15:00 +37°C° 0 mm 2 m/s 735 mmHg 42%
    16:00 +37°C° 0 mm 2 m/s 735 mmHg 43%
    17:00 +37°C° 0 mm 2 m/s 735 mmHg 44%
    18:00 +35°C° 0 mm 2 m/s 735 mmHg 50%
    19:00 +32°C° 0 mm 2 m/s 735 mmHg 55%
    20:00 +30°C° 0 mm 2 m/s 735 mmHg 61%
    21:00 +30°C° 0 mm 2 m/s 735 mmHg 63%
    22:00 +29°C° 0 mm 2 m/s 736 mmHg 66%
    23:00 +29°C° 0 mm 2 m/s 736 mmHg 68%

    25 Novembre, Lundi

    Heure Température Précipitation Vent Pression Humidité
    00:00 +28°C° 0 mm 2 m/s 735 mmHg 69%
    01:00 +28°C° 0 mm 2 m/s 735 mmHg 71%
    02:00 +27°C° 0 mm 2 m/s 735 mmHg 72%
    03:00 +27°C° 0 mm 2 m/s 735 mmHg 74%
    04:00 +27°C° 0 mm 2 m/s 735 mmHg 75%
    05:00 +27°C° 0 mm 2 m/s 736 mmHg 76%
    06:00 +29°C° 0 mm 3 m/s 736 mmHg 70%
    07:00 +31°C° 0 mm 3 m/s 737 mmHg 63%
    08:00 +34°C° 0 mm 4 m/s 737 mmHg 56%
    09:00 +36°C° 0 mm 4 m/s 737 mmHg 50%
    10:00 +37°C° 0 mm 4 m/s 737 mmHg 44%
    11:00 +40°C° 0 mm 4 m/s 737 mmHg 39%
    12:00 +41°C° 0 mm 4 m/s 736 mmHg 36%
    13:00 +41°C° 0 mm 4 m/s 735 mmHg 34%
    14:00 +42°C° 0 mm 4 m/s 734 mmHg 32%
    15:00 +41°C° 0 mm 4 m/s 734 mmHg 35%
    16:00 +39°C° 0 mm 3 m/s 734 mmHg 38%
    17:00 +38°C° 0 mm 3 m/s 733 mmHg 40%
    18:00 +36°C° 0.1 mm 2 m/s 734 mmHg 48%
    19:00 +32°C° 0.1 mm 2 m/s 734 mmHg 56%
    20:00 +30°C° 0.1 mm 2 m/s 734 mmHg 64%
    21:00 +30°C° 0 mm 2 m/s 734 mmHg 66%
    22:00 +29°C° 0 mm 2 m/s 734 mmHg 68%
    23:00 +29°C° 0 mm 2 m/s 735 mmHg 70%

    26 Novembre, Mardi

    Heure Température Précipitation Vent Pression Humidité
    00:00 +28°C° 0.5 mm 2 m/s 734 mmHg 75%
    01:00 +27°C° 0.5 mm 2 m/s 734 mmHg 80%
    02:00 +27°C° 0.5 mm 2 m/s 734 mmHg 86%
    03:00 +26°C° 0.6 mm 2 m/s 735 mmHg 87%
    04:00 +26°C° 0.6 mm 2 m/s 735 mmHg 88%
    05:00 +26°C° 0.6 mm 1 m/s 736 mmHg 89%
    06:00 +28°C° 0.1 mm 2 m/s 736 mmHg 81%
    07:00 +30°C° 0.1 mm 2 m/s 737 mmHg 73%
    08:00 +33°C° 0.1 mm 3 m/s 738 mmHg 65%
    09:00 +35°C° 0 mm 3 m/s 737 mmHg 56%
    10:00 +37°C° 0 mm 4 m/s 737 mmHg 47%
    11:00 +40°C° 0 mm 4 m/s 737 mmHg 39%
    12:00 +41°C° 0 mm 4 m/s 736 mmHg 37%
    13:00 +41°C° 0 mm 4 m/s 735 mmHg 35%
    14:00 +42°C° 0 mm 4 m/s 735 mmHg 33%
    15:00 +40°C° 0.1 mm 4 m/s 734 mmHg 38%
    16:00 +37°C° 0.1 mm 3 m/s 734 mmHg 44%
    17:00 +36°C° 0.1 mm 3 m/s 733 mmHg 49%
    18:00 +34°C° 0.5 mm 3 m/s 734 mmHg 56%
    19:00 +31°C° 0.5 mm 2 m/s 734 mmHg 63%
    20:00 +29°C° 0.5 mm 2 m/s 734 mmHg 71%
    21:00 +29°C° 0 mm 2 m/s 735 mmHg 72%
    22:00 +29°C° 0 mm 2 m/s 735 mmHg 73%
    23:00 +28°C° 0 mm 3 m/s 736 mmHg 75%

    27 Novembre, Mercredi

    Heure Température Précipitation Vent Pression Humidité
    00:00 +28°C° 0 mm 3 m/s 735 mmHg 75%
    01:00 +28°C° 0 mm 3 m/s 735 mmHg 75%
    02:00 +27°C° 0 mm 3 m/s 735 mmHg 76%
    03:00 +27°C° 0 mm 3 m/s 735 mmHg 77%
    04:00 +27°C° 0 mm 3 m/s 736 mmHg 78%
    05:00 +27°C° 0 mm 3 m/s 736 mmHg 79%
    06:00 +28°C° 0.1 mm 3 m/s 737 mmHg 74%
    07:00 +30°C° 0.1 mm 3 m/s 737 mmHg 68%
    08:00 +31°C° 0.1 mm 3 m/s 738 mmHg 63%
    09:00 +34°C° 0.2 mm 3 m/s 738 mmHg 58%
    10:00 +35°C° 0.2 mm 4 m/s 738 mmHg 53%
    11:00 +37°C° 0.2 mm 4 m/s 738 mmHg 49%
    12:00 +37°C° 0.2 mm 4 m/s 737 mmHg 46%
    13:00 +38°C° 0.2 mm 4 m/s 736 mmHg 44%
    14:00 +38°C° 0.2 mm 4 m/s 735 mmHg 42%
    15:00 +38°C° 0 mm 4 m/s 735 mmHg 44%
    16:00 +37°C° 0 mm 3 m/s 735 mmHg 45%
    17:00 +36°C° 0 mm 3 m/s 735 mmHg 47%
    18:00 +33°C° 3.5 mm 3 m/s 736 mmHg 63%
    19:00 +29°C° 3.5 mm 3 m/s 736 mmHg 78%
    20:00 +25°C° 3.5 mm 3 m/s 737 mmHg 94%
    21:00 +25°C° 1.4 mm 2 m/s 738 mmHg 94%
    22:00 +25°C° 1.4 mm 1 m/s 738 mmHg 95%
    23:00 +25°C° 1.4 mm 1 m/s 738 mmHg 95%
    Voir plus